Weather History for KCBF - April, 2012

Change the Weather History Date:

Tuesday, April 24, 2012

  Actual Average (KOMA) Record (KOMA)
Temperature  
Mean Temperature 66 °F 55 °F  
Max Temperature 84 °F 67 °F 92 °F (1989)
Min Temperature 48 °F 43 °F 26 °F (1956)
Degree Days  
Heating Degree Days 0 11  
Month to date heating degree days 355  
Since 1 July heating degree days 5944  
Cooling Degree Days 1 1  
Month to date cooling degree days 8  
Year to date cooling degree days 9  
Growing Degree Days 16 (Base 50)    
Moisture  
Dew Point 45 °F    
Average Humidity 47    
Maximum Humidity 76    
Minimum Humidity 25    
Precipitation  
Precipitation 0.00 in 0.12 in 1.72 in (2007)
Month to date precipitation 2.24  
Year to date precipitation 5.80  
Snow  
Snow 0.00 in 0.00 in - ()
Month to date snowfall 0.9  
Since 1 July snowfall 26.3  
Snow Depth -    
Sea Level Pressure  
Sea Level Pressure 29.68 in    
Wind  
Wind Speed 7 mph (SSW)    
Max Wind Speed 12 mph    
Max Gust Speed 18 mph    
Visibility 10 miles    
Events      
T = Trace of Precipitation, MM = Missing Value Source: NWS Daily Summary

Daily Weather History Graph

Daily Weather History Graph

Search for Another Location

Airport or City:

Trip Planner

Search our weather history database for the weather conditions in past years. The results will help you decide how hot, cold, wet, or windy it might be!

Date:

Astronomy

Apr. 24, 2012 Rise Set
Actual Time 6:29 AM CDT 8:13 PM CDT
Civil Twilight 6:00 AM CDT 8:42 PM CDT
Nautical Twilight 5:24 AM CDT 9:18 PM CDT
Astronomical Twilight 4:46 AM CDT 9:57 PM CDT
Moon 8:24 AM CDT (4/24) 11:35 PM CDT (4/24)
Length of Visible Light 14h 42m
Length of Day
13h 44m
Waxing Crescent, 10% of the Moon is Illuminated
Apr 24
Waxing Crescent
Apr 29
First Quarter
May 5
Full
May 12
Last Quarter
May 20
New

Hourly Weather History & Observations

Time (CDT) Temp. Dew Point Humidity Pressure Visibility Wind Dir Wind Speed Gust Speed Precip Events Conditions
12:15 AM 53.6 °F 35.6 °F 51% 29.88 in 10.0 mi South 8.1 mph - N/A   Clear
12:35 AM 53.6 °F 35.6 °F 51% 29.87 in 10.0 mi South 8.1 mph - N/A   Clear
12:55 AM 53.6 °F 37.4 °F 54% 29.87 in 10.0 mi South 6.9 mph - N/A   Clear
1:15 AM 51.8 °F 37.4 °F 58% 29.86 in 10.0 mi South 8.1 mph - N/A   Partly Cloudy
1:35 AM 51.8 °F 37.4 °F 58% 29.86 in 10.0 mi South 8.1 mph - N/A   Clear
1:55 AM 55.4 °F 39.2 °F 54% 29.85 in 10.0 mi SSW 9.2 mph - N/A   Clear
2:15 AM 55.4 °F 39.2 °F 54% 29.84 in 10.0 mi SSW 10.4 mph - N/A   Clear
2:35 AM 55.4 °F 39.2 °F 54% 29.83 in 10.0 mi SSW 9.2 mph - N/A   Clear
2:55 AM 55.4 °F 39.2 °F 54% 29.82 in 10.0 mi SSW 11.5 mph - N/A   Clear
3:15 AM 55.4 °F 39.2 °F 54% 29.81 in 10.0 mi South 10.4 mph 18.4 mph N/A   Clear
3:35 AM 53.6 °F 39.2 °F 58% 29.81 in 10.0 mi South 6.9 mph - N/A   Clear
4:15 AM 55.4 °F 39.2 °F 54% 29.80 in 10.0 mi South 9.2 mph - N/A   Clear
4:35 AM 55.4 °F 39.2 °F 54% 29.80 in 10.0 mi South 8.1 mph - N/A   Clear
4:55 AM 53.6 °F 41.0 °F 62% 29.79 in 10.0 mi South 10.4 mph - N/A   Clear
5:15 AM 53.6 °F 41.0 °F 62% 29.78 in 10.0 mi SSW 10.4 mph - N/A   Clear
5:35 AM 53.6 °F 41.0 °F 62% 29.77 in 10.0 mi SSW 9.2 mph - N/A   Clear
5:55 AM 53.6 °F 41.0 °F 62% 29.77 in 10.0 mi SSW 8.1 mph - N/A   Clear
6:15 AM 53.6 °F 41.0 °F 62% 29.76 in 10.0 mi South 10.4 mph - N/A   Clear
6:35 AM 50.0 °F 41.0 °F 71% 29.75 in 10.0 mi South 8.1 mph - N/A   Clear
6:55 AM 48.2 °F 41.0 °F 76% 29.75 in 10.0 mi South 6.9 mph - N/A   Clear
7:15 AM 51.8 °F 42.8 °F 71% 29.74 in 10.0 mi South 9.2 mph - N/A   Clear
7:35 AM 53.6 °F 42.8 °F 67% 29.73 in 10.0 mi South 9.2 mph - N/A   Clear
7:55 AM 55.4 °F 42.8 °F 63% 29.73 in 10.0 mi South 10.4 mph - N/A   Clear
8:15 AM 57.2 °F 44.6 °F 63% 29.72 in 10.0 mi South 8.1 mph 15.0 mph N/A   Clear
8:35 AM 57.2 °F 44.6 °F 63% 29.72 in 10.0 mi SSW 11.5 mph - N/A   Clear
8:55 AM 57.2 °F 44.6 °F 63% 29.72 in 10.0 mi SW 9.2 mph - N/A   Clear
9:15 AM 57.2 °F 44.6 °F 63% 29.72 in 10.0 mi SW 10.4 mph - N/A   Clear
9:35 AM 60.8 °F 46.4 °F 59% 29.70 in 10.0 mi SW 8.1 mph - N/A   Clear
9:55 AM 60.8 °F 46.4 °F 59% 29.70 in 10.0 mi SSW 9.2 mph - N/A   Clear
10:15 AM 62.6 °F 48.2 °F 59% 29.70 in 10.0 mi SW 6.9 mph 12.7 mph N/A   Clear
10:35 AM 64.4 °F 48.2 °F 56% 29.68 in 10.0 mi SW 8.1 mph - N/A   Clear
10:55 AM 66.2 °F 48.2 °F 52% 29.68 in 10.0 mi SW 10.4 mph - N/A   Clear
11:15 AM 68.0 °F 50.0 °F 52% 29.68 in 10.0 mi SW 10.4 mph - N/A   Clear
11:35 AM 68.0 °F 50.0 °F 52% 29.68 in 10.0 mi WSW 10.4 mph - N/A   Clear
11:55 AM 69.8 °F 50.0 °F 49% 29.67 in 10.0 mi SSW 9.2 mph - N/A   Clear
12:15 PM 69.8 °F 50.0 °F 49% 29.67 in 10.0 mi SW 10.4 mph - N/A   Clear
12:35 PM 71.6 °F 50.0 °F 46% 29.67 in 10.0 mi WSW 4.6 mph 11.5 mph N/A   Clear
12:55 PM 71.6 °F 50.0 °F 46% 29.66 in 10.0 mi WSW 6.9 mph - N/A   Clear
1:15 PM 71.6 °F 50.0 °F 46% 29.66 in 10.0 mi WSW 6.9 mph - N/A   Clear
1:35 PM 73.4 °F 50.0 °F 44% 29.65 in 10.0 mi SSW 6.9 mph - N/A   Clear
1:55 PM 73.4 °F 50.0 °F 44% 29.64 in 10.0 mi Variable 4.6 mph - N/A   Clear
2:15 PM 73.4 °F 50.0 °F 44% 29.63 in 10.0 mi SSW 5.8 mph - N/A   Clear
2:35 PM 75.2 °F 50.0 °F 41% 29.63 in 10.0 mi SSW 6.9 mph - N/A   Clear
2:55 PM 75.2 °F 50.0 °F 41% 29.63 in 10.0 mi SW 4.6 mph - N/A   Clear
3:15 PM 78.8 °F 50.0 °F 36% 29.62 in 10.0 mi West 4.6 mph - N/A   Clear
3:35 PM 78.8 °F 50.0 °F 36% 29.62 in 10.0 mi Calm Calm - N/A   Clear
3:55 PM 80.6 °F 50.0 °F 34% 29.61 in 10.0 mi SSW 3.5 mph - N/A   Clear
4:15 PM 80.6 °F 48.2 °F 32% 29.61 in 10.0 mi Calm Calm - N/A   Clear
4:35 PM 80.6 °F 46.4 °F 30% 29.60 in 10.0 mi Calm Calm - N/A   Clear
4:55 PM 82.4 °F 50.0 °F 32% 29.60 in 10.0 mi Calm Calm - N/A   Clear
5:15 PM 82.4 °F 50.0 °F 32% 29.60 in 10.0 mi Variable 3.5 mph - N/A   Clear
5:35 PM 82.4 °F 48.2 °F 30% 29.60 in 10.0 mi Calm Calm - N/A   Clear
5:55 PM 84.2 °F 46.4 °F 27% 29.60 in 10.0 mi NNE 4.6 mph - N/A   Clear
6:15 PM 84.2 °F 44.6 °F 25% 29.59 in 10.0 mi Calm Calm - N/A   Clear
6:35 PM 84.2 °F 46.4 °F 27% 29.59 in 10.0 mi ENE 3.5 mph - N/A   Clear
6:55 PM 82.4 °F 48.2 °F 30% 29.58 in 10.0 mi Calm Calm - N/A   Clear
7:15 PM 82.4 °F 48.2 °F 30% 29.58 in 10.0 mi Calm Calm - N/A   Clear
7:35 PM 80.6 °F 46.4 °F 30% 29.58 in 10.0 mi Calm Calm - N/A   Clear
7:55 PM 78.8 °F 48.2 °F 34% 29.57 in 10.0 mi Calm Calm - N/A   Clear
8:15 PM 78.8 °F 44.6 °F 30% 29.57 in 10.0 mi South 3.5 mph - N/A   Clear
8:35 PM 77.0 °F 44.6 °F 32% 29.58 in 10.0 mi Calm Calm - N/A   Clear
8:55 PM 77.0 °F 42.8 °F 29% 29.58 in 10.0 mi Calm Calm - N/A   Clear
9:15 PM 75.2 °F 44.6 °F 34% 29.58 in 10.0 mi SSE 4.6 mph - N/A   Clear
9:35 PM 73.4 °F 46.4 °F 38% 29.58 in 10.0 mi South 5.8 mph - N/A   Clear
9:55 PM 71.6 °F 46.4 °F 41% 29.58 in 10.0 mi SSE 5.8 mph - N/A   Clear
10:15 PM 71.6 °F 42.8 °F 35% 29.58 in 10.0 mi SSE 4.6 mph - N/A   Clear
10:35 PM 69.8 °F 42.8 °F 38% 29.58 in 10.0 mi SSE 3.5 mph - N/A   Clear
10:55 PM 71.6 °F 42.8 °F 35% 29.58 in 10.0 mi South 5.8 mph - N/A   Clear
11:15 PM 69.8 °F 44.6 °F 40% 29.57 in 10.0 mi SSE 4.6 mph - N/A   Clear
11:35 PM 69.8 °F 42.8 °F 38% 29.57 in 10.0 mi SE 5.8 mph - N/A   Clear
11:55 PM 69.8 °F 46.4 °F 43% 29.56 in 10.0 mi SSE 6.9 mph - N/A   Clear